#datetime,building,power
2023-08-08T00:00:00,mfh,32.86
2023-08-08T00:01:00,mfh,32.79
2023-08-08T00:02:00,mfh,32.90
2023-08-08T00:03:00,mfh,32.42
2023-08-08T00:04:00,mfh,32.41
2023-08-08T00:05:00,mfh,31.72
2023-08-08T00:06:00,mfh,32.41
2023-08-08T00:07:00,mfh,32.88
2023-08-08T00:08:00,mfh,33.14
2023-08-08T00:09:00,mfh,32.29
2023-08-08T00:10:00,mfh,32.19
2023-08-08T00:11:00,mfh,32.43
2023-08-08T00:12:00,mfh,31.51
2023-08-08T00:13:00,mfh,31.43
2023-08-08T00:14:00,mfh,31.35
2023-08-08T00:15:00,mfh,31.95
2023-08-08T00:16:00,mfh,32.09
2023-08-08T00:17:00,mfh,32.13
2023-08-08T00:18:00,mfh,32.09
2023-08-08T00:19:00,mfh,32.00
2023-08-08T00:20:00,mfh,31.30
2023-08-08T00:21:00,mfh,31.23
2023-08-08T00:22:00,mfh,31.21
2023-08-08T00:23:00,mfh,31.09
2023-08-08T00:24:00,mfh,31.63
2023-08-08T00:25:00,mfh,32.10
2023-08-08T00:26:00,mfh,31.73
2023-08-08T00:27:00,mfh,31.92
2023-08-08T00:28:00,mfh,32.01
2023-08-08T00:29:00,mfh,31.32
2023-08-08T00:30:00,mfh,31.21
2023-08-08T00:31:00,mfh,31.17
2023-08-08T00:32:00,mfh,31.13
2023-08-08T00:33:00,mfh,31.73
2023-08-08T00:34:00,mfh,31.96
2023-08-08T00:35:00,mfh,32.03
2023-08-08T00:36:00,mfh,32.07
2023-08-08T00:37:00,mfh,31.37
2023-08-08T00:38:00,mfh,31.41
2023-08-08T00:39:00,mfh,31.52
2023-08-08T00:40:00,mfh,31.48
2023-08-08T00:41:00,mfh,32.15
2023-08-08T00:42:00,mfh,32.47
2023-08-08T00:43:00,mfh,32.15
2023-08-08T00:44:00,mfh,32.06
2023-08-08T00:45:00,mfh,31.99
2023-08-08T00:46:00,mfh,31.20
2023-08-08T00:47:00,mfh,31.14
2023-08-08T00:48:00,mfh,31.14
2023-08-08T00:49:00,mfh,31.21
2023-08-08T00:50:00,mfh,31.85
2023-08-08T00:51:00,mfh,31.90
2023-08-08T00:52:00,mfh,32.30
2023-08-08T00:53:00,mfh,31.85
2023-08-08T00:54:00,mfh,31.94
2023-08-08T00:55:00,mfh,31.16
2023-08-08T00:56:00,mfh,31.17
2023-08-08T00:57:00,mfh,31.07
2023-08-08T00:58:00,mfh,31.59
2023-08-08T00:59:00,mfh,31.57
2023-08-08T01:00:00,mfh,31.78
2023-08-08T01:01:00,mfh,31.84
2023-08-08T01:02:00,mfh,32.30
2023-08-08T01:03:00,mfh,31.78
2023-08-08T01:04:00,mfh,31.46
2023-08-08T01:05:00,mfh,31.09
2023-08-08T01:06:00,mfh,31.14
2023-08-08T01:07:00,mfh,31.43
2023-08-08T01:08:00,mfh,31.96
2023-08-08T01:09:00,mfh,31.92
2023-08-08T01:10:00,mfh,31.94
2023-08-08T01:11:00,mfh,31.90
2023-08-08T01:12:00,mfh,31.33
2023-08-08T01:13:00,mfh,31.28
2023-08-08T01:14:00,mfh,31.22
2023-08-08T01:15:00,mfh,31.21
2023-08-08T01:16:00,mfh,31.79
2023-08-08T01:17:00,mfh,31.70
2023-08-08T01:18:00,mfh,31.72
2023-08-08T01:19:00,mfh,31.76
2023-08-08T01:20:00,mfh,31.93
2023-08-08T01:21:00,mfh,32.24
2023-08-08T01:22:00,mfh,31.08
2023-08-08T01:23:00,mfh,31.07
2023-08-08T01:24:00,mfh,31.19
2023-08-08T01:25:00,mfh,31.17
2023-08-08T01:26:00,mfh,31.82
2023-08-08T01:27:00,mfh,32.59
2023-08-08T01:28:00,mfh,31.73
2023-08-08T01:29:00,mfh,31.72
2023-08-08T01:30:00,mfh,31.07
2023-08-08T01:31:00,mfh,31.43
2023-08-08T01:32:00,mfh,31.06
2023-08-08T01:33:00,mfh,31.06
2023-08-08T01:34:00,mfh,31.98
2023-08-08T01:35:00,mfh,31.65
2023-08-08T01:36:00,mfh,31.64
2023-08-08T01:37:00,mfh,31.85
2023-08-08T01:38:00,mfh,31.73
2023-08-08T01:39:00,mfh,31.06
2023-08-08T01:40:00,mfh,31.06
2023-08-08T01:41:00,mfh,31.00
2023-08-08T01:42:00,mfh,31.00
2023-08-08T01:43:00,mfh,31.81
2023-08-08T01:44:00,mfh,32.32
2023-08-08T01:45:00,mfh,31.91
2023-08-08T01:46:00,mfh,32.67
2023-08-08T01:47:00,mfh,32.03
2023-08-08T01:48:00,mfh,31.32
2023-08-08T01:49:00,mfh,31.19
2023-08-08T01:50:00,mfh,31.25
2023-08-08T01:51:00,mfh,31.91
2023-08-08T01:52:00,mfh,31.98
2023-08-08T01:53:00,mfh,31.92
2023-08-08T01:54:00,mfh,32.11
2023-08-08T01:55:00,mfh,31.99
2023-08-08T01:56:00,mfh,32.71
2023-08-08T01:57:00,mfh,31.91
2023-08-08T01:58:00,mfh,31.25
2023-08-08T01:59:00,mfh,31.90
2023-08-08T02:00:00,mfh,31.84
2023-08-08T02:01:00,mfh,31.84
2023-08-08T02:02:00,mfh,31.81
2023-08-08T02:03:00,mfh,31.77
2023-08-08T02:04:00,mfh,34.14
2023-08-08T02:05:00,mfh,34.11
2023-08-08T02:06:00,mfh,32.88
2023-08-08T02:07:00,mfh,33.47
2023-08-08T02:08:00,mfh,32.73
2023-08-08T02:09:00,mfh,33.45
2023-08-08T02:10:00,mfh,33.42
2023-08-08T02:11:00,mfh,33.52
2023-08-08T02:12:00,mfh,32.48
2023-08-08T02:13:00,mfh,32.49
2023-08-08T02:14:00,mfh,31.86
2023-08-08T02:15:00,mfh,31.26
2023-08-08T02:16:00,mfh,31.88
2023-08-08T02:17:00,mfh,31.29
2023-08-08T02:18:00,mfh,31.88
2023-08-08T02:19:00,mfh,31.92
2023-08-08T02:20:00,mfh,31.79
2023-08-08T02:21:00,mfh,31.73
2023-08-08T02:22:00,mfh,31.73
2023-08-08T02:23:00,mfh,31.25
2023-08-08T02:24:00,mfh,31.00
2023-08-08T02:25:00,mfh,31.34
2023-08-08T02:26:00,mfh,31.21
2023-08-08T02:27:00,mfh,31.82
2023-08-08T02:28:00,mfh,31.83
2023-08-08T02:29:00,mfh,32.15
2023-08-08T02:30:00,mfh,31.91
2023-08-08T02:31:00,mfh,31.88
2023-08-08T02:32:00,mfh,31.21
2023-08-08T02:33:00,mfh,31.11
2023-08-08T02:34:00,mfh,31.22
2023-08-08T02:35:00,mfh,31.43
2023-08-08T02:36:00,mfh,31.78
2023-08-08T02:37:00,mfh,31.80
2023-08-08T02:38:00,mfh,31.87
2023-08-08T02:39:00,mfh,32.41
2023-08-08T02:40:00,mfh,31.74
2023-08-08T02:41:00,mfh,31.15
2023-08-08T02:42:00,mfh,31.13
2023-08-08T02:43:00,mfh,31.22
2023-08-08T02:44:00,mfh,32.37
2023-08-08T02:45:00,mfh,31.87
2023-08-08T02:46:00,mfh,32.57
2023-08-08T02:47:00,mfh,32.12
2023-08-08T02:48:00,mfh,32.78
2023-08-08T02:49:00,mfh,32.09
2023-08-08T02:50:00,mfh,31.91
2023-08-08T02:51:00,mfh,31.79
2023-08-08T02:52:00,mfh,31.13
2023-08-08T02:53:00,mfh,32.42
2023-08-08T02:54:00,mfh,33.19
2023-08-08T02:55:00,mfh,31.88
2023-08-08T02:56:00,mfh,31.87
2023-08-08T02:57:00,mfh,31.96
2023-08-08T02:58:00,mfh,31.31
2023-08-08T02:59:00,mfh,31.47
2023-08-08T03:00:00,mfh,31.46
2023-08-08T03:01:00,mfh,31.59
2023-08-08T03:02:00,mfh,32.10
2023-08-08T03:03:00,mfh,32.11
2023-08-08T03:04:00,mfh,32.10
2023-08-08T03:05:00,mfh,32.07
2023-08-08T03:06:00,mfh,32.01
2023-08-08T03:07:00,mfh,31.32
2023-08-08T03:08:00,mfh,31.96
2023-08-08T03:09:00,mfh,32.08
2023-08-08T03:10:00,mfh,31.40
2023-08-08T03:11:00,mfh,31.97
2023-08-08T03:12:00,mfh,31.89
2023-08-08T03:13:00,mfh,31.95
2023-08-08T03:14:00,mfh,32.44
2023-08-08T03:15:00,mfh,31.38
2023-08-08T03:16:00,mfh,31.28
2023-08-08T03:17:00,mfh,31.38
2023-08-08T03:18:00,mfh,31.30
2023-08-08T03:19:00,mfh,31.98
2023-08-08T03:20:00,mfh,31.95
2023-08-08T03:21:00,mfh,32.00
2023-08-08T03:22:00,mfh,31.94
2023-08-08T03:23:00,mfh,31.98
2023-08-08T03:24:00,mfh,31.95
2023-08-08T03:25:00,mfh,31.13
2023-08-08T03:26:00,mfh,31.93
2023-08-08T03:27:00,mfh,31.41
2023-08-08T03:28:00,mfh,31.88
2023-08-08T03:29:00,mfh,31.80
2023-08-08T03:30:00,mfh,31.92
2023-08-08T03:31:00,mfh,32.75
2023-08-08T03:32:00,mfh,31.96
2023-08-08T03:33:00,mfh,32.04
2023-08-08T03:34:00,mfh,31.07
2023-08-08T03:35:00,mfh,31.08
2023-08-08T03:36:00,mfh,31.06
2023-08-08T03:37:00,mfh,31.73
2023-08-08T03:38:00,mfh,31.76
2023-08-08T03:39:00,mfh,31.81
2023-08-08T03:40:00,mfh,32.01
2023-08-08T03:41:00,mfh,31.98
2023-08-08T03:42:00,mfh,32.60
2023-08-08T03:43:00,mfh,31.59
2023-08-08T03:44:00,mfh,31.07
2023-08-08T03:45:00,mfh,31.05
2023-08-08T03:46:00,mfh,31.78
2023-08-08T03:47:00,mfh,31.69
2023-08-08T03:48:00,mfh,32.37
2023-08-08T03:49:00,mfh,31.78
2023-08-08T03:50:00,mfh,31.77
2023-08-08T03:51:00,mfh,31.11
2023-08-08T03:52:00,mfh,31.16
2023-08-08T03:53:00,mfh,31.17
2023-08-08T03:54:00,mfh,31.12
2023-08-08T03:55:00,mfh,31.71
2023-08-08T03:56:00,mfh,31.76
2023-08-08T03:57:00,mfh,31.75
2023-08-08T03:58:00,mfh,31.75
2023-08-08T03:59:00,mfh,31.72
2023-08-08T04:00:00,mfh,30.99
2023-08-08T04:01:00,mfh,30.94
2023-08-08T04:02:00,mfh,31.15
2023-08-08T04:03:00,mfh,31.22
2023-08-08T04:04:00,mfh,31.82
2023-08-08T04:05:00,mfh,31.77
2023-08-08T04:06:00,mfh,31.73
2023-08-08T04:07:00,mfh,32.22
2023-08-08T04:08:00,mfh,31.28
2023-08-08T04:09:00,mfh,31.58
2023-08-08T04:10:00,mfh,32.28
2023-08-08T04:11:00,mfh,24.84
2023-08-08T04:12:00,mfh,25.43
2023-08-08T04:13:00,mfh,25.46
2023-08-08T04:14:00,mfh,25.57
2023-08-08T04:15:00,mfh,25.75
2023-08-08T04:16:00,mfh,26.18
2023-08-08T04:17:00,mfh,25.08
2023-08-08T04:18:00,mfh,26.00
2023-08-08T04:19:00,mfh,26.23
2023-08-08T04:20:00,mfh,25.08
2023-08-08T04:21:00,mfh,25.71
2023-08-08T04:22:00,mfh,25.62
2023-08-08T04:23:00,mfh,26.07
2023-08-08T04:24:00,mfh,25.86
2023-08-08T04:25:00,mfh,26.62
2023-08-08T04:26:00,mfh,25.15
2023-08-08T04:27:00,mfh,25.08
2023-08-08T04:28:00,mfh,25.11
2023-08-08T04:29:00,mfh,25.11
2023-08-08T04:30:00,mfh,25.72
2023-08-08T04:31:00,mfh,25.83
2023-08-08T04:32:00,mfh,25.93
2023-08-08T04:33:00,mfh,25.86
2023-08-08T04:34:00,mfh,26.54
2023-08-08T04:35:00,mfh,26.52
2023-08-08T04:36:00,mfh,25.97
2023-08-08T04:37:00,mfh,33.83
2023-08-08T04:38:00,mfh,34.20
2023-08-08T04:39:00,mfh,34.73
2023-08-08T04:40:00,mfh,34.75
2023-08-08T04:41:00,mfh,34.47
2023-08-08T04:42:00,mfh,34.55
2023-08-08T04:43:00,mfh,35.42
2023-08-08T04:44:00,mfh,33.91
2023-08-08T04:45:00,mfh,33.90
2023-08-08T04:46:00,mfh,33.72
2023-08-08T04:47:00,mfh,34.07
2023-08-08T04:48:00,mfh,34.27
2023-08-08T04:49:00,mfh,35.01
2023-08-08T04:50:00,mfh,35.12
2023-08-08T04:51:00,mfh,34.40
2023-08-08T04:52:00,mfh,34.57
2023-08-08T04:53:00,mfh,33.88
2023-08-08T04:54:00,mfh,34.58
2023-08-08T04:55:00,mfh,33.88
2023-08-08T04:56:00,mfh,34.39
2023-08-08T04:57:00,mfh,34.45
2023-08-08T04:58:00,mfh,34.34
2023-08-08T04:59:00,mfh,34.38
2023-08-08T05:00:00,mfh,34.37
2023-08-08T05:01:00,mfh,52.77
2023-08-08T05:02:00,mfh,53.16
2023-08-08T05:03:00,mfh,53.19
2023-08-08T05:04:00,mfh,53.32
2023-08-08T05:05:00,mfh,53.10
2023-08-08T05:06:00,mfh,53.87
2023-08-08T05:07:00,mfh,54.09
2023-08-08T05:08:00,mfh,54.15
2023-08-08T05:09:00,mfh,53.96
2023-08-08T05:10:00,mfh,54.06
2023-08-08T05:11:00,mfh,54.89
2023-08-08T05:12:00,mfh,55.14
2023-08-08T05:13:00,mfh,55.30
2023-08-08T05:14:00,mfh,56.48
2023-08-08T05:15:00,mfh,56.54
2023-08-08T05:16:00,mfh,57.05
2023-08-08T05:17:00,mfh,56.77
2023-08-08T05:18:00,mfh,56.64
2023-08-08T05:19:00,mfh,54.37
2023-08-08T05:20:00,mfh,54.26
2023-08-08T05:21:00,mfh,54.33
2023-08-08T05:22:00,mfh,54.49
2023-08-08T05:23:00,mfh,55.83
2023-08-08T05:24:00,mfh,56.36
2023-08-08T05:25:00,mfh,55.96
2023-08-08T05:26:00,mfh,55.84
2023-08-08T05:27:00,mfh,56.30
2023-08-08T05:28:00,mfh,55.40
2023-08-08T05:29:00,mfh,60.14
2023-08-08T05:30:00,mfh,75.03
2023-08-08T05:31:00,mfh,76.56
2023-08-08T05:32:00,mfh,76.37
2023-08-08T05:33:00,mfh,76.00
2023-08-08T05:34:00,mfh,76.05
2023-08-08T05:35:00,mfh,75.86
2023-08-08T05:36:00,mfh,74.87
2023-08-08T05:37:00,mfh,74.82
2023-08-08T05:38:00,mfh,74.98
2023-08-08T05:39:00,mfh,74.93
2023-08-08T05:40:00,mfh,75.47
2023-08-08T05:41:00,mfh,74.78
2023-08-08T05:42:00,mfh,62.06
2023-08-08T05:43:00,mfh,55.31
2023-08-08T05:44:00,mfh,55.11
2023-08-08T05:45:00,mfh,54.52
2023-08-08T05:46:00,mfh,54.67
2023-08-08T05:47:00,mfh,54.59
2023-08-08T05:48:00,mfh,55.01
2023-08-08T05:49:00,mfh,55.25
2023-08-08T05:50:00,mfh,55.13
2023-08-08T05:51:00,mfh,56.20
2023-08-08T05:52:00,mfh,54.92
2023-08-08T05:53:00,mfh,55.20
2023-08-08T05:54:00,mfh,54.43
2023-08-08T05:55:00,mfh,54.26
2023-08-08T05:56:00,mfh,54.25
2023-08-08T05:57:00,mfh,54.76
2023-08-08T05:58:00,mfh,54.87
2023-08-08T05:59:00,mfh,55.06
2023-08-08T06:00:00,mfh,55.86
2023-08-08T06:01:00,mfh,59.14
2023-08-08T06:02:00,mfh,58.90
2023-08-08T06:03:00,mfh,58.16
2023-08-08T06:04:00,mfh,58.02
2023-08-08T06:05:00,mfh,58.72
2023-08-08T06:06:00,mfh,59.36
2023-08-08T06:07:00,mfh,59.26
2023-08-08T06:08:00,mfh,59.39
2023-08-08T06:09:00,mfh,59.25
2023-08-08T06:10:00,mfh,59.18
2023-08-08T06:11:00,mfh,59.17
2023-08-08T06:12:00,mfh,59.36
2023-08-08T06:13:00,mfh,59.15
2023-08-08T06:14:00,mfh,58.62
2023-08-08T06:15:00,mfh,58.38
2023-08-08T06:16:00,mfh,58.52
2023-08-08T06:17:00,mfh,59.18
2023-08-08T06:18:00,mfh,59.66
2023-08-08T06:19:00,mfh,59.43
2023-08-08T06:20:00,mfh,59.87
2023-08-08T06:21:00,mfh,59.73
2023-08-08T06:22:00,mfh,60.08
2023-08-08T06:23:00,mfh,59.87
2023-08-08T06:24:00,mfh,59.37
2023-08-08T06:25:00,mfh,59.56
2023-08-08T06:26:00,mfh,59.19
2023-08-08T06:27:00,mfh,59.87
2023-08-08T06:28:00,mfh,59.98
2023-08-08T06:29:00,mfh,60.17
2023-08-08T06:30:00,mfh,60.32
2023-08-08T06:31:00,mfh,60.89
2023-08-08T06:32:00,mfh,60.49
2023-08-08T06:33:00,mfh,60.59
2023-08-08T06:34:00,mfh,60.29
2023-08-08T06:35:00,mfh,59.23
2023-08-08T06:36:00,mfh,59.06
2023-08-08T06:37:00,mfh,59.56
2023-08-08T06:38:00,mfh,59.82
2023-08-08T06:39:00,mfh,59.74
2023-08-08T06:40:00,mfh,60.47
2023-08-08T06:41:00,mfh,60.47
2023-08-08T06:42:00,mfh,60.80
2023-08-08T06:43:00,mfh,61.27
2023-08-08T06:44:00,mfh,60.63
2023-08-08T06:45:00,mfh,60.69
2023-08-08T06:46:00,mfh,60.34
2023-08-08T06:47:00,mfh,60.02
2023-08-08T06:48:00,mfh,59.97
2023-08-08T06:49:00,mfh,60.87
2023-08-08T06:50:00,mfh,60.68
2023-08-08T06:51:00,mfh,60.02
2023-08-08T06:52:00,mfh,60.40
2023-08-08T06:53:00,mfh,60.39
2023-08-08T06:54:00,mfh,60.62
2023-08-08T06:55:00,mfh,60.52
2023-08-08T06:56:00,mfh,60.34
2023-08-08T06:57:00,mfh,59.61
2023-08-08T06:58:00,mfh,59.71
2023-08-08T06:59:00,mfh,60.22
2023-08-08T07:00:00,mfh,61.28
2023-08-08T07:01:00,mfh,60.10
2023-08-08T07:02:00,mfh,60.28
2023-08-08T07:03:00,mfh,60.67
2023-08-08T07:04:00,mfh,60.89
2023-08-08T07:05:00,mfh,60.65
2023-08-08T07:06:00,mfh,60.20
2023-08-08T07:07:00,mfh,60.20
2023-08-08T07:08:00,mfh,59.93
2023-08-08T07:09:00,mfh,59.41
2023-08-08T07:10:00,mfh,59.18
2023-08-08T07:11:00,mfh,59.14
2023-08-08T07:12:00,mfh,59.36
2023-08-08T07:13:00,mfh,59.23
2023-08-08T07:14:00,mfh,59.40
2023-08-08T07:15:00,mfh,59.35
2023-08-08T07:16:00,mfh,59.46
2023-08-08T07:17:00,mfh,59.11
2023-08-08T07:18:00,mfh,59.10
2023-08-08T07:19:00,mfh,59.08
2023-08-08T07:20:00,mfh,58.41
2023-08-08T07:21:00,mfh,58.49
2023-08-08T07:22:00,mfh,59.19
2023-08-08T07:23:00,mfh,58.90
2023-08-08T07:24:00,mfh,58.59
2023-08-08T07:25:00,mfh,58.73
2023-08-08T07:26:00,mfh,58.83
2023-08-08T07:27:00,mfh,59.39
2023-08-08T07:28:00,mfh,59.39
2023-08-08T07:29:00,mfh,59.23
2023-08-08T07:30:00,mfh,58.95
2023-08-08T07:31:00,mfh,58.16
2023-08-08T07:32:00,mfh,58.13
2023-08-08T07:33:00,mfh,58.20
2023-08-08T07:34:00,mfh,58.80
2023-08-08T07:35:00,mfh,59.63
2023-08-08T07:36:00,mfh,58.62
2023-08-08T07:37:00,mfh,58.69
2023-08-08T07:38:00,mfh,59.04
2023-08-08T07:39:00,mfh,58.96
2023-08-08T07:40:00,mfh,60.21
2023-08-08T07:41:00,mfh,59.57
2023-08-08T07:42:00,mfh,58.08
2023-08-08T07:43:00,mfh,58.89
2023-08-08T07:44:00,mfh,57.98
2023-08-08T07:45:00,mfh,58.63
2023-08-08T07:46:00,mfh,58.56
2023-08-08T07:47:00,mfh,59.06
2023-08-08T07:48:00,mfh,59.00
2023-08-08T07:49:00,mfh,58.76
2023-08-08T07:50:00,mfh,58.82
2023-08-08T07:51:00,mfh,58.81
2023-08-08T07:52:00,mfh,58.81
2023-08-08T07:53:00,mfh,58.60
2023-08-08T07:54:00,mfh,58.27
2023-08-08T07:55:00,mfh,57.93
2023-08-08T07:56:00,mfh,58.55
2023-08-08T07:57:00,mfh,59.52
2023-08-08T07:58:00,mfh,59.80
2023-08-08T07:59:00,mfh,58.99
2023-08-08T08:00:00,mfh,58.95
2023-08-08T08:01:00,mfh,58.97
2023-08-08T08:02:00,mfh,59.29
2023-08-08T08:03:00,mfh,59.14
2023-08-08T08:04:00,mfh,59.51
2023-08-08T08:05:00,mfh,60.30
2023-08-08T08:06:00,mfh,58.71
2023-08-08T08:07:00,mfh,59.16
2023-08-08T08:08:00,mfh,59.25
2023-08-08T08:09:00,mfh,59.10
2023-08-08T08:10:00,mfh,59.19
2023-08-08T08:11:00,mfh,58.97
2023-08-08T08:12:00,mfh,59.27
2023-08-08T08:13:00,mfh,59.32
2023-08-08T08:14:00,mfh,59.06
2023-08-08T08:15:00,mfh,59.86
2023-08-08T08:16:00,mfh,58.40
2023-08-08T08:17:00,mfh,58.72
2023-08-08T08:18:00,mfh,58.81
2023-08-08T08:19:00,mfh,59.39
2023-08-08T08:20:00,mfh,60.95
2023-08-08T08:21:00,mfh,61.04
2023-08-08T08:22:00,mfh,61.51
2023-08-08T08:23:00,mfh,61.33
2023-08-08T08:24:00,mfh,60.25
2023-08-08T08:25:00,mfh,60.40
2023-08-08T08:26:00,mfh,59.51
2023-08-08T08:27:00,mfh,59.52
2023-08-08T08:28:00,mfh,57.97
2023-08-08T08:29:00,mfh,58.81
2023-08-08T08:30:00,mfh,58.78
2023-08-08T08:31:00,mfh,58.67
2023-08-08T08:32:00,mfh,65.65
2023-08-08T08:33:00,mfh,66.14
2023-08-08T08:34:00,mfh,68.25
2023-08-08T08:35:00,mfh,67.99
2023-08-08T08:36:00,mfh,70.62
2023-08-08T08:37:00,mfh,67.94
2023-08-08T08:38:00,mfh,66.73
2023-08-08T08:39:00,mfh,66.73
2023-08-08T08:40:00,mfh,66.92
2023-08-08T08:41:00,mfh,67.22
2023-08-08T08:42:00,mfh,66.97
2023-08-08T08:43:00,mfh,67.07
2023-08-08T08:44:00,mfh,67.31
2023-08-08T08:45:00,mfh,59.82
2023-08-08T08:46:00,mfh,60.52
2023-08-08T08:47:00,mfh,59.79
2023-08-08T08:48:00,mfh,60.13
2023-08-08T08:49:00,mfh,60.05
2023-08-08T08:50:00,mfh,59.79
2023-08-08T08:51:00,mfh,60.47
2023-08-08T08:52:00,mfh,60.89
2023-08-08T08:53:00,mfh,60.31
2023-08-08T08:54:00,mfh,60.06
2023-08-08T08:55:00,mfh,60.58
2023-08-08T08:56:00,mfh,60.32
2023-08-08T08:57:00,mfh,60.85
2023-08-08T08:58:00,mfh,61.07
2023-08-08T08:59:00,mfh,60.23
2023-08-08T09:00:00,mfh,60.42
2023-08-08T09:01:00,mfh,60.50
2023-08-08T09:02:00,mfh,60.39
2023-08-08T09:03:00,mfh,60.87
2023-08-08T09:04:00,mfh,60.96
2023-08-08T09:05:00,mfh,60.98
2023-08-08T09:06:00,mfh,61.31
2023-08-08T09:07:00,mfh,61.11
2023-08-08T09:08:00,mfh,61.35
2023-08-08T09:09:00,mfh,60.23
2023-08-08T09:10:00,mfh,59.37
2023-08-08T09:11:00,mfh,60.11
2023-08-08T09:12:00,mfh,60.06
2023-08-08T09:13:00,mfh,59.96
2023-08-08T09:14:00,mfh,60.16
2023-08-08T09:15:00,mfh,59.66
2023-08-08T09:16:00,mfh,60.43
2023-08-08T09:17:00,mfh,60.01
2023-08-08T09:18:00,mfh,60.74
2023-08-08T09:19:00,mfh,60.13
2023-08-08T09:20:00,mfh,60.07
2023-08-08T09:21:00,mfh,66.71
2023-08-08T09:22:00,mfh,67.16
2023-08-08T09:23:00,mfh,67.31
2023-08-08T09:24:00,mfh,67.88
2023-08-08T09:25:00,mfh,67.88
2023-08-08T09:26:00,mfh,67.78
2023-08-08T09:27:00,mfh,68.53
2023-08-08T09:28:00,mfh,68.49
2023-08-08T09:29:00,mfh,68.40
2023-08-08T09:30:00,mfh,67.53
2023-08-08T09:31:00,mfh,66.45
2023-08-08T09:32:00,mfh,66.25
2023-08-08T09:33:00,mfh,66.20
2023-08-08T09:34:00,mfh,66.59
2023-08-08T09:35:00,mfh,59.49
2023-08-08T09:36:00,mfh,59.51
2023-08-08T09:37:00,mfh,59.39
2023-08-08T09:38:00,mfh,60.05
2023-08-08T09:39:00,mfh,59.49
2023-08-08T09:40:00,mfh,59.47
2023-08-08T09:41:00,mfh,59.54
2023-08-08T09:42:00,mfh,59.53
2023-08-08T09:43:00,mfh,59.19
2023-08-08T09:44:00,mfh,59.23
2023-08-08T09:45:00,mfh,60.66
2023-08-08T09:46:00,mfh,59.91
2023-08-08T09:47:00,mfh,59.94
2023-08-08T09:48:00,mfh,60.09
2023-08-08T09:49:00,mfh,61.02
2023-08-08T09:50:00,mfh,60.19
2023-08-08T09:51:00,mfh,60.25
2023-08-08T09:52:00,mfh,60.41
2023-08-08T09:53:00,mfh,59.65
2023-08-08T09:54:00,mfh,59.54
2023-08-08T09:55:00,mfh,59.69
2023-08-08T09:56:00,mfh,60.30
2023-08-08T09:57:00,mfh,60.95
2023-08-08T09:58:00,mfh,60.36
2023-08-08T09:59:00,mfh,61.32
2023-08-08T10:00:00,mfh,61.35
2023-08-08T10:01:00,mfh,61.24
2023-08-08T10:02:00,mfh,61.03
2023-08-08T10:03:00,mfh,62.91
2023-08-08T10:04:00,mfh,62.99
2023-08-08T10:05:00,mfh,62.19
2023-08-08T10:06:00,mfh,62.69
2023-08-08T10:07:00,mfh,62.63
2023-08-08T10:08:00,mfh,62.69
2023-08-08T10:09:00,mfh,62.54
2023-08-08T10:10:00,mfh,63.09
2023-08-08T10:11:00,mfh,63.17
2023-08-08T10:12:00,mfh,63.47
2023-08-08T10:13:00,mfh,64.21
2023-08-08T10:14:00,mfh,63.37
2023-08-08T10:15:00,mfh,62.72
2023-08-08T10:16:00,mfh,62.39
2023-08-08T10:17:00,mfh,63.02
2023-08-08T10:18:00,mfh,62.06
2023-08-08T10:19:00,mfh,61.88
2023-08-08T10:20:00,mfh,62.37
2023-08-08T10:21:00,mfh,63.44
2023-08-08T10:22:00,mfh,62.55
2023-08-08T10:23:00,mfh,63.01
2023-08-08T10:24:00,mfh,62.40
2023-08-08T10:25:00,mfh,63.02
2023-08-08T10:26:00,mfh,62.60
2023-08-08T10:27:00,mfh,62.21
2023-08-08T10:28:00,mfh,62.53
2023-08-08T10:29:00,mfh,62.45
2023-08-08T10:30:00,mfh,62.74
2023-08-08T10:31:00,mfh,64.62
2023-08-08T10:32:00,mfh,63.72
2023-08-08T10:33:00,mfh,63.90
2023-08-08T10:34:00,mfh,65.60
2023-08-08T10:35:00,mfh,64.05
2023-08-08T10:36:00,mfh,63.40
2023-08-08T10:37:00,mfh,62.14
2023-08-08T10:38:00,mfh,61.14
2023-08-08T10:39:00,mfh,61.26
2023-08-08T10:40:00,mfh,61.20
2023-08-08T10:41:00,mfh,60.83
2023-08-08T10:42:00,mfh,60.86
2023-08-08T10:43:00,mfh,60.64
2023-08-08T10:44:00,mfh,60.55
2023-08-08T10:45:00,mfh,60.97
2023-08-08T10:46:00,mfh,61.15
2023-08-08T10:47:00,mfh,60.98
2023-08-08T10:48:00,mfh,60.55
2023-08-08T10:49:00,mfh,60.80
2023-08-08T10:50:00,mfh,60.88
2023-08-08T10:51:00,mfh,61.45
2023-08-08T10:52:00,mfh,62.61
2023-08-08T10:53:00,mfh,61.61
2023-08-08T10:54:00,mfh,67.76
2023-08-08T10:55:00,mfh,74.67
2023-08-08T10:56:00,mfh,79.09
2023-08-08T10:57:00,mfh,84.00
2023-08-08T10:58:00,mfh,84.01
2023-08-08T10:59:00,mfh,83.50
2023-08-08T11:00:00,mfh,83.24
2023-08-08T11:01:00,mfh,83.31
2023-08-08T11:02:00,mfh,84.45
2023-08-08T11:03:00,mfh,84.09
2023-08-08T11:04:00,mfh,84.02
2023-08-08T11:05:00,mfh,83.33
2023-08-08T11:06:00,mfh,83.55
2023-08-08T11:07:00,mfh,83.15
2023-08-08T11:08:00,mfh,83.16
2023-08-08T11:09:00,mfh,83.32
2023-08-08T11:10:00,mfh,82.97
2023-08-08T11:11:00,mfh,82.95
2023-08-08T11:12:00,mfh,83.00
2023-08-08T11:13:00,mfh,83.10
2023-08-08T11:14:00,mfh,82.92
2023-08-08T11:15:00,mfh,79.83
2023-08-08T11:16:00,mfh,80.01
2023-08-08T11:17:00,mfh,83.19
2023-08-08T11:18:00,mfh,78.18
2023-08-08T11:19:00,mfh,78.26
2023-08-08T11:20:00,mfh,79.24
2023-08-08T11:21:00,mfh,78.72
2023-08-08T11:22:00,mfh,78.73
2023-08-08T11:23:00,mfh,78.67
2023-08-08T11:24:00,mfh,78.81
2023-08-08T11:25:00,mfh,78.76
2023-08-08T11:26:00,mfh,79.01
2023-08-08T11:27:00,mfh,78.70
2023-08-08T11:28:00,mfh,78.94
2023-08-08T11:29:00,mfh,78.76
2023-08-08T11:30:00,mfh,78.63
2023-08-08T11:31:00,mfh,78.85
2023-08-08T11:32:00,mfh,77.62
2023-08-08T11:33:00,mfh,78.09
2023-08-08T11:34:00,mfh,83.32
2023-08-08T11:35:00,mfh,84.13
2023-08-08T11:36:00,mfh,84.10
2023-08-08T11:37:00,mfh,84.06
2023-08-08T11:38:00,mfh,84.06
2023-08-08T11:39:00,mfh,83.57
2023-08-08T11:40:00,mfh,83.78
2023-08-08T11:41:00,mfh,83.49
2023-08-08T11:42:00,mfh,83.53
2023-08-08T11:43:00,mfh,83.01
2023-08-08T11:44:00,mfh,82.62
2023-08-08T11:45:00,mfh,82.93
2023-08-08T11:46:00,mfh,83.06
2023-08-08T11:47:00,mfh,77.62
2023-08-08T11:48:00,mfh,77.65
2023-08-08T11:49:00,mfh,77.61
2023-08-08T11:50:00,mfh,77.52
2023-08-08T11:51:00,mfh,77.34
2023-08-08T11:52:00,mfh,77.34
2023-08-08T11:53:00,mfh,77.33
2023-08-08T11:54:00,mfh,76.76
2023-08-08T11:55:00,mfh,76.70
2023-08-08T11:56:00,mfh,76.65
2023-08-08T11:57:00,mfh,77.03
2023-08-08T11:58:00,mfh,77.04
2023-08-08T11:59:00,mfh,76.94
2023-08-08T12:00:00,mfh,77.01
2023-08-08T12:01:00,mfh,76.87
2023-08-08T12:02:00,mfh,76.78
2023-08-08T12:03:00,mfh,76.74
2023-08-08T12:04:00,mfh,76.02
2023-08-08T12:05:00,mfh,76.16
2023-08-08T12:06:00,mfh,82.47
2023-08-08T12:07:00,mfh,82.93
2023-08-08T12:08:00,mfh,82.66
2023-08-08T12:09:00,mfh,82.69
2023-08-08T12:10:00,mfh,82.65
2023-08-08T12:11:00,mfh,82.58
2023-08-08T12:12:00,mfh,82.54
2023-08-08T12:13:00,mfh,82.52
2023-08-08T12:14:00,mfh,82.53
2023-08-08T12:15:00,mfh,82.22
2023-08-08T12:16:00,mfh,81.87
2023-08-08T12:17:00,mfh,81.90
2023-08-08T12:18:00,mfh,81.90
2023-08-08T12:19:00,mfh,82.19
2023-08-08T12:20:00,mfh,82.10
2023-08-08T12:21:00,mfh,82.04
2023-08-08T12:22:00,mfh,82.18
2023-08-08T12:23:00,mfh,82.09
2023-08-08T12:24:00,mfh,82.28
2023-08-08T12:25:00,mfh,82.09
2023-08-08T12:26:00,mfh,81.61
2023-08-08T12:27:00,mfh,81.77
2023-08-08T12:28:00,mfh,81.71
2023-08-08T12:29:00,mfh,82.24
2023-08-08T12:30:00,mfh,82.17
2023-08-08T12:31:00,mfh,82.21
2023-08-08T12:32:00,mfh,82.44
2023-08-08T12:33:00,mfh,82.50
2023-08-08T12:34:00,mfh,82.63
2023-08-08T12:35:00,mfh,82.48
2023-08-08T12:36:00,mfh,82.64
2023-08-08T12:37:00,mfh,82.47
2023-08-08T12:38:00,mfh,81.79
2023-08-08T12:39:00,mfh,82.04
2023-08-08T12:40:00,mfh,81.91
2023-08-08T12:41:00,mfh,82.20
2023-08-08T12:42:00,mfh,82.09
2023-08-08T12:43:00,mfh,82.27
2023-08-08T12:44:00,mfh,82.23
2023-08-08T12:45:00,mfh,82.41
2023-08-08T12:46:00,mfh,82.20
2023-08-08T12:47:00,mfh,82.23
2023-08-08T12:48:00,mfh,82.31
2023-08-08T12:49:00,mfh,81.92
2023-08-08T12:50:00,mfh,81.85
2023-08-08T12:51:00,mfh,82.24
2023-08-08T12:52:00,mfh,82.17
2023-08-08T12:53:00,mfh,82.10
2023-08-08T12:54:00,mfh,82.31
2023-08-08T12:55:00,mfh,78.18
2023-08-08T12:56:00,mfh,78.41
2023-08-08T12:57:00,mfh,78.38
2023-08-08T12:58:00,mfh,68.47
2023-08-08T12:59:00,mfh,67.81
2023-08-08T13:00:00,mfh,67.67
2023-08-08T13:01:00,mfh,73.23
2023-08-08T13:02:00,mfh,74.12
2023-08-08T13:03:00,mfh,73.69
2023-08-08T13:04:00,mfh,74.03
2023-08-08T13:05:00,mfh,73.86
2023-08-08T13:06:00,mfh,74.01
2023-08-08T13:07:00,mfh,74.67
2023-08-08T13:08:00,mfh,73.96
2023-08-08T13:09:00,mfh,73.91
2023-08-08T13:10:00,mfh,73.45
2023-08-08T13:11:00,mfh,73.50
2023-08-08T13:12:00,mfh,73.54
2023-08-08T13:13:00,mfh,73.92
2023-08-08T13:14:00,mfh,74.00
2023-08-08T13:15:00,mfh,73.80
2023-08-08T13:16:00,mfh,74.42
2023-08-08T13:17:00,mfh,74.17
2023-08-08T13:18:00,mfh,74.81